Location: Unspecified
(42.1900°N, 71.3291°W)
Time: 20:20:32
(UTC-04:00)

Cosmos 1674 - Visible Passes

Search period start: 25 April 2017 00:00
Search period end: 05 May 2017 00:00
Orbit: 499 x 522 km, 82.5° (Epoch: 24 April)

Date Brightness Start Highest point End Pass type
(mag) Time Alt. Az. Time Alt. Az. Time Alt. Az.
26 Apr 3.7 05:13:09 10° S 05:16:48 49° E 05:20:30 10° NNE visible
27 Apr 4.2 04:56:49 10° SSE 05:00:20 38° E 05:03:54 10° NNE visible
28 Apr 4.7 04:40:33 10° SSE 04:43:52 30° E 04:47:15 10° NNE visible
29 Apr 5.1 04:24:21 10° SE 04:27:25 24° E 04:30:32 10° NE visible
30 Apr 5.4 04:08:16 10° SE 04:10:59 19° E 04:13:44 10° NE visible
01 May 5.5 03:52:18 10° ESE 03:54:33 15° E 03:56:49 10° NE visible
02 May 5.7 03:36:36 10° ESE 03:38:07 12° E 03:39:39 10° ENE visible
03 May 2.8 04:52:59 10° SSW 04:56:44 57° W 05:00:32 10° N visible
04 May 2.6 04:36:23 10° SSW 04:40:11 74° W 04:44:03 10° N visible
